Stockton Lake Weather Center

Moon Phase Calendar



Stockton Lake Water Level
Online Cameras

 


      

Current Conditions in Stockton
4/18/2024 12:45:05 PM

78°F
Feels Like 79
Clouds
Humidity
72%
Pressure
29.85"
Wind
10.1 mph (WSW)
Dew Point
68°F
UV Index
1/10 (Low)
Visibility
6 mi

Hourly Forecast

Date & Time Thu, Apr 18
12:00 PM
Thu, Apr 18
1:00 PM
Thu, Apr 18
2:00 PM
Thu, Apr 18
3:00 PM
Thu, Apr 18
4:00 PM
Thu, Apr 18
5:00 PM
Thu, Apr 18
6:00 PM
Thu, Apr 18
7:00 PM
Thu, Apr 18
8:00 PM
Thu, Apr 18
9:00 PM
Thu, Apr 18
10:00 PM
Thu, Apr 18
11:00 PM
Fri, Apr 19
12:00 AM
Fri, Apr 19
1:00 AM
Fri, Apr 19
2:00 AM
Fri, Apr 19
3:00 AM
Fri, Apr 19
4:00 AM
Fri, Apr 19
5:00 AM
Fri, Apr 19
6:00 AM
Fri, Apr 19
7:00 AM
Fri, Apr 19
8:00 AM
Fri, Apr 19
9:00 AM
Fri, Apr 19
10:00 AM
Fri, Apr 19
11:00 AM
Fri, Apr 19
12:00 PM
Fri, Apr 19
1:00 PM
Fri, Apr 19
2:00 PM
Fri, Apr 19
3:00 PM
Fri, Apr 19
4:00 PM
Fri, Apr 19
5:00 PM
Fri, Apr 19
6:00 PM
Fri, Apr 19
7:00 PM
Fri, Apr 19
8:00 PM
Fri, Apr 19
9:00 PM
Fri, Apr 19
10:00 PM
Fri, Apr 19
11:00 PM
Sat, Apr 20
12:00 AM
Sat, Apr 20
1:00 AM
Sat, Apr 20
2:00 AM
Sat, Apr 20
3:00 AM
Sat, Apr 20
4:00 AM
Sat, Apr 20
5:00 AM
Sat, Apr 20
6:00 AM
Sat, Apr 20
7:00 AM
Sat, Apr 20
8:00 AM
Sat, Apr 20
9:00 AM
Sat, Apr 20
10:00 AM
Sat, Apr 20
11:00 AM
Condition
Clouds

Clouds

Clouds

Clouds

Rain

Rain

Rain

Clouds

Clouds

Clouds

Clouds

Clouds

Clouds

Clouds

Clear

Clear

Clouds

Clouds

Clouds

Clouds

Clouds

Clouds

Clouds

Clouds

Clouds

Clouds

Clouds

Clouds

Clouds

Clouds

Clouds

Clouds

Clouds

Clouds

Clouds

Clouds

Clouds

Clouds

Clouds

Clouds

Clouds

Clouds

Clouds

Clouds

Clouds

Clouds

Clouds

Clouds
Temperature 77°F78°F77°F75°F71°F58°F51°F50°F49°F49°F49°F48°F46°F45°F44°F42°F41°F41°F40°F40°F44°F48°F52°F55°F58°F59°F61°F61°F61°F60°F59°F56°F51°F48°F46°F45°F44°F44°F45°F47°F47°F48°F48°F47°F48°F51°F54°F56°F
Feels Like 78°F79°F78°F76°F71°F57°F50°F43°F42°F43°F43°F42°F40°F39°F38°F37°F36°F35°F35°F35°F39°F44°F49°F52°F55°F57°F58°F58°F58°F58°F57°F54°F48°F44°F42°F40°F40°F39°F41°F43°F45°F45°F45°F44°F45°F49°F51°F53°F
Cloudiness 59%61%69%77%84%92%100%100%100%100%95%96%94%80%2%5%32%31%34%43%78%45%30%27%28%40%96%98%99%99%96%89%100%100%71%53%44%38%68%82%88%91%93%94%100%76%76%80%
Visibility 6 mi6 mi6 mi6 mi6 mi6 mi6 mi6 mi6 mi6 mi6 mi6 mi6 mi6 mi6 mi6 mi6 mi6 mi6 mi6 mi6 mi6 mi6 mi6 mi6 mi6 mi6 mi6 mi6 mi6 mi6 mi6 mi6 mi6 mi6 mi6 mi6 mi6 mi6 mi6 mi6 mi6 mi6 mi6 mi6 mi6 mi6 mi6 mi
Precipitation 0%0%54%77%100%100%100%80%0%0%0%0%0%0%0%0%0%0%0%0%0%0%0%0%0%0%0%0%0%0%0%0%0%0%0%0%0%0%0%0%0%0%0%0%0%0%0%0%
Humidity 74%72%75%78%81%88%92%92%91%89%88%88%88%89%89%93%94%94%92%87%75%59%49%42%39%36%35%35%35%37%48%58%57%56%58%58%58%58%55%53%53%53%54%58%65%59%54%50%
Dew Point 68°F68°F68°F68°F64°F54°F49°F47°F46°F46°F45°F45°F43°F42°F40°F40°F40°F39°F38°F37°F37°F35°F34°F33°F33°F32°F33°F33°F33°F34°F40°F41°F36°F33°F32°F31°F31°F30°F30°F31°F31°F32°F32°F33°F37°F37°F37°F37°F
Pressure 29.85"29.85"29.85"29.85"29.85"29.91"29.97"30.03"30.06"30.09"30.12"30.15"30.18"30.21"30.21"30.24"30.24"30.24"30.24"30.27"30.27"30.27"30.27"30.27"30.24"30.24"30.21"30.21"30.18"30.18"30.18"30.18"30.21"30.24"30.27"30.27"30.27"30.27"30.27"30.27"30.3"30.33"30.33"30.33"30.36"30.36"30.36"30.33"
Wind Speed 11.2 mph10.1 mph12 mph14 mph18.6 mph22 mph21.4 mph20.5 mph18.9 mph16.6 mph15.6 mph15.5 mph14.9 mph12.2 mph10.8 mph7.6 mph7.9 mph8.3 mph7.9 mph7.7 mph9.2 mph11.5 mph11.8 mph11.8 mph13.5 mph12.7 mph12.6 mph11.1 mph10 mph9.8 mph8.6 mph7.2 mph8.8 mph9.2 mph8.9 mph8.8 mph8.2 mph8.2 mph7.7 mph7.2 mph5.9 mph5.8 mph6 mph6.2 mph7.8 mph11.9 mph11.2 mph11.2 mph
Wind
Direction
225°
SW
238°
WSW
246°
WSW
241°
WSW
311°
NW
341°
NNW
351°
N
357°
N
358°
N

N

N
360°
N
359°
N

N

N

N

N

N

N
21°
NNE
30°
NNE
38°
NE
40°
NE
35°
NE
35°
NE
37°
NE
39°
NE
48°
NE
50°
NE
48°
NE
45°
NE
33°
NNE
32°
NNE
34°
NE
41°
NE
46°
NE
45°
NE
49°
NE
58°
ENE
58°
ENE
56°
NE
57°
ENE
50°
NE
54°
NE
36°
NE
47°
NE
56°
NE
50°
NE

Daily Forecast

Date High Low Precip. Humidity
Today
Apr 18

Rain
78 °F
48 °F
100%
72%
Friday
Apr 19

Clouds
61 °F
40 °F
0%
36%
Saturday
Apr 20

Rain
59 °F
44 °F
20%
48%
Sunday
Apr 21

Clouds
59 °F
38 °F
0%
43%
Monday
Apr 22

Clouds
67 °F
40 °F
0%
49%
Tuesday
Apr 23

Rain
60 °F
54 °F
100%
97%
Wednesday
Apr 24

Clouds
64 °F
38 °F
0%
59%
Thursday
Apr 25

Rain
60 °F
48 °F
100%
94%
Friday
Apr 26

Rain
78 °F
61 °F
100%
74%
Saturday
Apr 27

Rain
77 °F
51 °F
100%
70%
Sunday
Apr 28

Rain
82 °F
59 °F
35%
71%
Monday
Apr 29

Rain
76 °F
63 °F
100%
80%
Tuesday
Apr 30

Rain
80 °F
62 °F
100%
66%
Wednesday
May 1

Rain
75 °F
57 °F
96%
61%
Thursday
May 2

Clear
78 °F
57 °F
0%
50%
Friday
May 3

Clouds
77 °F
57 °F
0%
55%

Temperature 8-14 Day Outlook



Precipitation 8-14 Day Outlook






About Us
Contact Us
Site Map
Search Site
Advertise With Us
   
Stockton.USLakes.info
THE STOCKTON LAKE WEBSITE

Copyright 2024, Lakes Online
Privacy    |    Legal